Location: Campillo
(40.8621°N, 4.2488°W)
Time: 11:25:19
(UTC+00:00)

Intercosmos 25 Rocket - Pass Details

Date: 11 May 2021
Orbit: 435 x 2984 km, 82.6° (Epoch: 13 June)

Event Time Altitude Azimuth Distance (km) Brightness Sun altitude
Rises 20:23:56 0° 350° (N) 3,988 8.4 -10.6°
Reaches altitude 10° 20:27:07 10° 349° (N) 2,656 7.5 -11.1°
Maximum altitude 20:32:42 72° 266° (W) 688 3.9 -12.0°
Drops below altitude 10° 20:36:21 10° 182° (S) 1,750 5.5 -12.5°
Enters shadow 20:36:50 - 181° (S) 1,962 5.8 -12.6°
